Location: ??? ????
(38.0580°N, 23.1536°E)
Time: 14:41:15
(UTC+00:00)

Cosmos 990 Rocket - Pass Details

Date: 13 December 2025
Orbit: 742 x 764 km, 74.0° (Epoch: 17 January)

Event Time Altitude Azimuth Distance (km) Brightness Sun altitude
Rises 15:42:55 0° 203° (SSW) 3,164 8.0 -6.9°
Reaches altitude 10° 15:45:16 10° 206° (SSW) 2,246 7.2 -7.4°
Maximum altitude 15:50:19 69° 289° (WNW) 796 4.3 -8.3°
Drops below altitude 10° 15:55:27 10° 13° (NNE) 2,271 6.1 -9.2°
Sets 15:57:51 0° 16° (NNE) 3,203 6.8 -9.6°
